TimeEET,TemperatureF,Dew PointF,Humidity,Sea Level PressureIn,VisibilityMPH,Wind Direction,Wind SpeedMPH,Gust SpeedMPH,PrecipitationIn,Events,Conditions,WindDirDegrees,DateUTC
12:00 AM,68.0,55.4,64,29.98,-9999.0,NW,6.9,-,N/A,,Clear,310,2013-11-29 22:00:00
1:00 AM,66.2,55.4,68,29.98,-9999.0,NW,9.2,-,N/A,,Clear,310,2013-11-29 23:00:00
2:00 AM,66,55,60,29.99,6,NW,11.5,,,,,310,2013-11-30 00:00:00
2:00 AM,66.2,55.4,68,29.98,-9999.0,NW,11.5,-,N/A,,Clear,310,2013-11-30 00:00:00
3:00 AM,64.4,53.6,68,29.98,-9999.0,WNW,11.5,-,N/A,,Clear,300,2013-11-30 01:00:00
4:00 AM,64.4,53.6,68,29.98,-9999.0,WNW,12.7,-,N/A,,Clear,290,2013-11-30 02:00:00
5:00 AM,63,53,62,29.98,6,NW,11.5,,,,,310,2013-11-30 03:00:00
5:00 AM,62.6,53.6,72,29.98,-9999.0,NW,11.5,-,N/A,,Clear,310,2013-11-30 03:00:00
6:00 AM,62.6,53.6,72,29.98,-9999.0,NW,10.4,-,N/A,,Clear,310,2013-11-30 04:00:00
7:00 AM,64.4,53.6,68,29.98,-9999.0,NW,9.2,-,N/A,,Clear,310,2013-11-30 05:00:00
8:00 AM,67,54,53,30.02,6,NW,10.4,,,,,320,2013-11-30 06:00:00
8:00 AM,66.2,53.6,64,30.01,-9999.0,NW,10.4,-,N/A,,Clear,320,2013-11-30 06:00:00
9:00 AM,69.8,53.6,56,30.01,-9999.0,NNW,11.5,-,N/A,,Clear,330,2013-11-30 07:00:00
10:00 AM,73.4,57.2,57,30.01,-9999.0,NNW,9.2,-,N/A,,Clear,340,2013-11-30 08:00:00
11:00 AM,76,60,49,30.02,6,North,11.5,,,,Clear,10,2013-11-30 09:00:00
12:00 PM,77.0,59.0,54,29.98,-9999.0,North,9.2,-,N/A,,Clear,10,2013-11-30 10:00:00
1:00 PM,77.0,60.8,57,29.95,-9999.0,North,9.2,-,N/A,,Clear,350,2013-11-30 11:00:00
2:00 PM,77,59,44,29.96,6,North,11.5,,,,Clear,350,2013-11-30 12:00:00
2:00 PM,77.0,59.0,54,29.95,-9999.0,North,11.5,-,N/A,,Clear,350,2013-11-30 12:00:00
3:00 PM,75.2,59.0,57,29.95,-9999.0,North,11.5,-,N/A,,Clear,350,2013-11-30 13:00:00
4:00 PM,75.2,59.0,57,29.95,-9999.0,North,9.2,-,N/A,,Clear,360,2013-11-30 14:00:00
5:00 PM,74,60,52,29.96,6,North,9.2,,,,Overcast,350,2013-11-30 15:00:00
5:00 PM,73.4,59.0,61,29.95,-9999.0,North,9.2,-,N/A,,Clear,350,2013-11-30 15:00:00
6:00 PM,71.6,60.8,69,29.98,-9999.0,Calm,Calm,-,N/A,,Clear,0,2013-11-30 16:00:00
7:00 PM,69.8,59.0,68,29.98,-9999.0,Calm,Calm,-,N/A,,Clear,0,2013-11-30 17:00:00
8:00 PM,69.8,59.0,68,30.01,-9999.0,WNW,4.6,-,N/A,,Clear,290,2013-11-30 18:00:00
9:00 PM,68.0,55.4,64,30.01,-9999.0,NW,4.6,-,N/A,,Clear,310,2013-11-30 19:00:00
10:00 PM,68.0,57.2,68,30.01,-9999.0,Calm,Calm,-,N/A,,Clear,0,2013-11-30 20:00:00
11:00 PM,66.2,57.2,73,30.01,-9999.0,NW,6.9,-,N/A,,Clear,310,2013-11-30 21:00:00